Morgantown, WV

11:49 AM EDT on June 23, 2017 (GMT -0400)
Morgantown Municipal-Hart

Weather History for KMGW - April, 2015

Change the Weather History Date:

Wednesday, April 22, 2015

  Actual Average Record
Temperature  
Mean Temperature 45 °F 55 °F  
Max Temperature 54 °F 66 °F 88 °F (1952)
Min Temperature 36 °F 44 °F 22 °F (2002)
Degree Days  
Heating Degree Days 20 11  
Month to date heating degree days 187 305  
Since 1 July heating degree days 5073 4906  
Cooling Degree Days 0 1  
Month to date cooling degree days 8 4  
Year to date cooling degree days 8 6  
Moisture  
Dew Point 33 °F    
Average Humidity 62    
Maximum Humidity 85    
Minimum Humidity 38    
Precipitation  
Precipitation 0.35 in 0.12 in 1.11 in (2006)
Month to date precipitation 5.06 2.57  
Year to date precipitation 15.54 11.63  
Sea Level Pressure  
Sea Level Pressure 29.75 in    
Wind  
Wind Speed 6 mph (SW)    
Max Wind Speed 18 mph    
Max Gust Speed 27 mph    
Visibility 9 miles    
Events Rain    
T = Trace of Precipitation, MM = Missing Value Source: NWS Daily Summary

Daily Weather History Graph

Daily Weather History Graph

Search for Another Location

Airport or City:

Trip Planner

Search our weather history database for the weather conditions in past years. The results will help you decide how hot, cold, wet, or windy it might be!

Date:

Astronomy

Apr. 22, 2015 Rise Set
Actual Time 6:32 AM EDT 8:04 PM EDT
Civil Twilight 6:04 AM EDT 8:32 PM EDT
Nautical Twilight 5:30 AM EDT 9:07 PM EDT
Astronomical Twilight 4:54 AM EDT 9:43 PM EDT
Moon 9:41 AM EDT (4/22) No Moon Set
Length of Visible Light 14h 28m
Length of Day
13h 31m
Waxing Crescent, 19% of the Moon is Illuminated
Apr 22
Waxing Crescent
Apr 25
First Quarter
May 3
Full
May 11
Last Quarter
May 18
New

Hourly Weather History & Observations

Time (EDT) Temp. Windchill Dew Point Humidity Pressure Visibility Wind Dir Wind Speed Gust Speed Precip Events Conditions
12:53 AM 53.1 °F - 28.0 °F 38% 29.76 in 10.0 mi SSW 5.8 mph - N/A   Partly Cloudy
1:53 AM 52.0 °F - 28.0 °F 40% 29.74 in 10.0 mi SSW 5.8 mph - N/A   Clear
2:53 AM 52.0 °F - 28.0 °F 40% 29.73 in 10.0 mi SSW 9.2 mph - N/A   Clear
3:53 AM 53.1 °F - 28.9 °F 40% 29.70 in 10.0 mi SW 10.4 mph - N/A   Mostly Cloudy
4:53 AM 50.0 °F - 37.0 °F 61% 29.71 in 10.0 mi SSW 3.5 mph - 0.02 in   Mostly Cloudy
5:53 AM 48.0 °F - 39.0 °F 71% 29.71 in 5.0 mi West 6.9 mph - 0.04 in Rain Light Rain
6:53 AM 46.9 °F - 39.9 °F 77% 29.70 in 10.0 mi South 5.8 mph - 0.02 in Rain Light Rain
7:53 AM 48.0 °F - 41.0 °F 77% 29.67 in 10.0 mi South 5.8 mph - 0.00 in   Overcast
8:53 AM 52.0 °F - 39.9 °F 63% 29.63 in 10.0 mi SSW 6.9 mph - N/A   Mostly Cloudy
9:29 AM 48.0 °F - 41.0 °F 77% 29.67 in 2.0 mi NW 13.8 mph 25.3 mph 0.09 in Rain Light Rain
9:36 AM 42.1 °F 34.5 °F 37.0 °F 82% 29.68 in 1.0 mi NW 15.0 mph 25.3 mph 0.13 in Rain Light Rain
9:44 AM 42.1 °F 35.2 °F 36.0 °F 79% 29.69 in 7.0 mi NNW 12.7 mph 25.3 mph 0.13 in   Overcast
9:53 AM 41.0 °F 34.3 °F 35.1 °F 79% 29.72 in 10.0 mi WNW 11.5 mph 25.3 mph 0.13 in   Overcast
10:00 AM 41.0 °F 37.1 °F 35.1 °F 79% 29.71 in 8.0 mi Variable 5.8 mph 20.7 mph 0.01 in   Overcast
10:30 AM 39.0 °F 34.0 °F 34.0 °F 82% 29.74 in 6.0 mi NNE 6.9 mph - 0.06 in Rain Light Rain
10:49 AM 39.2 °F 37.0 °F 33.8 °F 81% 29.77 in 9.0 mi SW 3.5 mph - 0.07 in Rain Light Rain
10:53 AM 39.9 °F - 34.0 °F 79% 29.78 in 5.0 mi Calm Calm - 0.08 in Rain Light Rain
11:01 AM 39.9 °F 36.7 °F 35.1 °F 83% 29.75 in 3.0 mi SE 4.6 mph - 0.01 in Rain Light Rain
11:53 AM 39.9 °F - 36.0 °F 86% 29.76 in 8.0 mi Calm Calm - 0.04 in Rain Light Rain
12:10 PM 39.9 °F 36.7 °F 36.0 °F 86% 29.76 in 7.0 mi South 4.6 mph - 0.01 in Rain Light Rain
12:38 PM 41.0 °F 38.0 °F 36.0 °F 82% 29.74 in 10.0 mi South 4.6 mph - 0.02 in Rain Light Rain
12:50 PM 41.0 °F 38.0 °F 37.4 °F 87% 29.74 in 10.0 mi South 4.6 mph - 0.02 in Rain Light Rain
12:53 PM 41.0 °F 38.0 °F 36.0 °F 82% 29.75 in 10.0 mi South 4.6 mph - 0.02 in Rain Light Rain
1:09 PM 41.0 °F 38.0 °F 37.0 °F 86% 29.74 in 10.0 mi SSW 4.6 mph - 0.00 in Rain Light Rain
1:17 PM 42.1 °F 40.2 °F 37.0 °F 82% 29.75 in 10.0 mi Variable 3.5 mph - 0.00 in Rain Light Rain
1:53 PM 43.0 °F 39.5 °F 37.0 °F 80% 29.77 in 10.0 mi SW 5.8 mph - 0.00 in Rain Light Rain
1:59 PM 43.0 °F 40.3 °F 37.0 °F 80% 29.76 in 10.0 mi Variable 4.6 mph - 0.00 in   Overcast
2:53 PM 46.0 °F 43.1 °F 36.0 °F 68% 29.76 in 10.0 mi Variable 5.8 mph - 0.00 in   Overcast
3:18 PM 48.0 °F - 34.0 °F 58% 29.74 in 10.0 mi SW 9.2 mph - N/A   Overcast
3:53 PM 48.0 °F - 34.0 °F 58% 29.73 in 10.0 mi Variable 6.9 mph - N/A   Overcast
4:53 PM 48.0 °F - 35.1 °F 61% 29.73 in 10.0 mi South 5.8 mph - N/A   Overcast
5:53 PM 50.0 °F - 28.9 °F 44% 29.74 in 10.0 mi WNW 12.7 mph 23.0 mph N/A   Overcast
6:53 PM 50.0 °F - 28.0 °F 43% 29.78 in 10.0 mi NW 6.9 mph 19.6 mph 0.00 in   Clear
7:53 PM 45.0 °F 39.3 °F 24.1 °F 44% 29.82 in 10.0 mi WNW 11.5 mph 21.9 mph N/A   Scattered Clouds
8:53 PM 43.0 °F 37.2 °F 23.0 °F 45% 29.85 in 10.0 mi WNW 10.4 mph 19.6 mph N/A   Clear
9:53 PM 42.1 °F 37.7 °F 21.0 °F 43% 29.87 in 10.0 mi WNW 6.9 mph - N/A   Clear
10:53 PM 41.0 °F 37.1 °F 21.9 °F 47% 29.90 in 10.0 mi Variable 5.8 mph - N/A   Partly Cloudy
11:53 PM 39.0 °F - 21.0 °F 49% 29.91 in 10.0 mi Calm Calm - N/A   Clear